CW7959 Weather Reports


Display with metric or nautical units.
time (UTC)temp
F
wind
direction
speed
MPH
gust
MPH
rain 1hr
in
rain 24hr
in
rain mn
in
humidity
%
barometer
mb
20260901040405 56 210 4.0 12.0 0.02 0.09 0.04 96 1010.0
20260901035405 56 210 3.0 9.0 0.02 0.09 0.04 96 1010.0
20260901034905 56 215 2.0 9.0 0.02 0.09 0.04 96 1010.1
20260901034405 55 217 2.0 7.0 0.02 0.09 0.03 96 1010.0
20260901033905 55 220 1.0 5.0 0.01 0.08 0.02 96 1010.2
20260901033404 55 220 0.0 0.0 0.00 0.07 0.02 96 1010.2
20260901032904 55 220 0.0 2.0 0.00 0.07 0.02 96 1010.3
20260901032404 55 220 0.0 1.0 0.00 0.07 0.02 96 1010.4
20260901031904 55 220 0.0 1.0 0.00 0.07 0.02 96 1010.4
20260901031405 55 220 0.0 0.0 0.00 0.07 0.02 96 1010.4
20260901030404 55 220 1.0 5.0 0.00 0.07 0.02 96 1010.6
20260901025904 55 220 0.0 6.0 0.00 0.07 0.02 96 1010.7
20260901025404 55 220 0.0 1.0 0.00 0.07 0.02 96 1010.7
20260901024904 55 220 0.0 0.0 0.00 0.07 0.02 96 1010.7
20260901023904 55 220 0.0 0.0 0.00 0.07 0.02 96 1010.9
20260901022404 55 220 0.0 3.0 0.01 0.07 0.02 96 1011.2
20260901021905 55 220 0.0 0.0 0.01 0.07 0.02 96 1011.2
20260901021404 55 220 0.0 0.0 0.01 0.07 0.02 96 1011.3
20260901020404 55 220 2.0 10.0 0.01 0.07 0.02 96 1011.4
20260901015904 55 220 1.0 7.0 0.01 0.07 0.02 96 1011.4
20260901015405 55 213 3.0 10.0 0.01 0.07 0.02 96 1011.5
20260901014906 55 209 3.0 13.0 0.01 0.07 0.02 96 1011.5
20260901014406 55 227 2.0 7.0 0.01 0.07 0.02 96 1011.5
20260901013905 55 228 2.0 3.0 0.01 0.07 0.02 96 1011.4
20260901013405 55 228 1.0 5.0 0.00 0.06 0.01 96 1011.4
20260901012904 55 229 1.0 3.0 0.00 0.06 0.01 96 1011.3
20260901012404 55 229 0.0 7.0 0.00 0.06 0.01 96 1011.4
20260901011904 55 232 1.0 8.0 0.00 0.06 0.01 96 1011.4
20260901011404 55 234 1.0 8.0 0.01 0.06 0.01 96 1011.4
20260901010904 55 212 2.0 7.0 0.01 0.06 0.01 96 1011.4
20260901010405 55 212 3.0 9.0 0.01 0.06 0.01 96 1011.4
20260901005904 55 226 2.0 10.0 0.01 0.06 0.01 96 1011.4
20260901005405 55 287 1.0 3.0 0.01 0.06 0.01 96 1011.5
20260901004904 55 287 1.0 6.0 0.01 0.06 0.01 96 1011.4
20260901003904 55 293 1.0 3.0 0.01 0.06 0.01 96 1011.5
20260901003405 55 293 0.0 0.0 0.01 0.06 0.01 96 1011.5
20260901002905 55 293 0.0 0.0 0.01 0.06 0.01 95 1011.5
20260901002405 55 293 0.0 0.0 0.01 0.06 0.01 95 1011.6
20260901001905 55 293 0.0 0.0 0.01 0.06 0.01 95 1011.6
20260901001405 55 293 0.0 2.0 0.00 0.06 0.00 95 1011.7
20260901000904 55 293 0.0 0.0 0.00 0.06 0.00 95 1011.8
20260901000405 54 293 0.0 2.0 0.00 0.06 0.00 95 1011.9
20260831235904 54 293 0.0 0.0 0.00 0.06 0.00 95 1012.1
20260831235404 54 293 0.0 0.0 0.00 0.06 0.00 95 1012.1
20260831234405 54 293 0.0 1.0 0.00 0.06 0.00 95 1012.1
20260831233904 54 293 0.0 0.0 0.00 0.06 0.00 95 1012.1
20260831233404 54 293 0.0 1.0 0.00 0.06 0.00 95 1012.2
20260831232904 54 293 0.0 2.0 0.00 0.06 0.00 95 1012.3
20260831231904 54 293 0.0 3.0 0.00 0.06 0.00 95 1012.4
20260831231405 54 293 0.0 0.0 0.00 0.06 0.00 95 1012.4
20260831230904 54 293 0.0 2.0 0.00 0.06 0.00 95 1012.4
20260831230404 54 293 0.0 1.0 0.00 0.06 0.00 95 1012.5
20260831225904 54 293 0.0 2.0 0.00 0.06 0.06 95 1012.6
20260831225404 54 293 1.0 3.0 0.00 0.06 0.06 95 1012.5
20260831223904 54 293 0.0 2.0 0.00 0.06 0.06 95 1012.6
20260831223405 54 293 0.0 0.0 0.00 0.06 0.06 95 1012.6
20260831222904 54 293 1.0 6.0 0.00 0.06 0.06 95 1012.7
20260831222404 53 294 1.0 5.0 0.00 0.06 0.06 94 1012.7
20260831221404 53 302 1.0 5.0 0.00 0.06 0.06 94 1012.9
20260831220905 53 302 0.0 2.0 0.00 0.06 0.06 94 1012.8
20260831220405 53 302 0.0 0.0 0.00 0.06 0.06 94 1012.8
20260831215405 53 302 0.0 0.0 0.00 0.07 0.06 94 1012.9
20260831214905 53 302 0.0 0.0 0.00 0.08 0.06 94 1012.9
20260831214405 53 302 0.0 0.0 0.00 0.10 0.06 94 1012.9
20260831213405 53 302 0.0 0.0 0.00 0.13 0.06 94 1012.9
20260831212904 53 302 0.0 0.0 0.00 0.14 0.06 94 1013.0
20260831212404 53 303 0.0 0.0 0.00 0.16 0.06 93 1013.0
20260831210904 54 302 0.0 0.0 0.00 0.17 0.06 93 1013.0
20260831205404 54 303 0.0 0.0 0.00 0.17 0.06 93 1013.2
20260831204904 54 302 0.0 0.0 0.00 0.17 0.06 93 1013.2
20260831204404 54 302 0.0 0.0 0.00 0.17 0.06 93 1013.3
20260831203904 54 302 0.0 0.0 0.00 0.17 0.06 93 1013.2
20260831203405 54 302 0.0 0.0 0.00 0.17 0.06 93 1013.2
20260831202905 54 302 0.0 0.0 0.00 0.17 0.06 92 1013.2
20260831201905 54 302 0.0 0.0 0.00 0.17 0.06 92 1013.2
20260831201404 54 302 0.0 0.0 0.00 0.17 0.06 92 1013.2
20260831200904 54 302 0.0 0.0 0.00 0.17 0.06 92 1013.3
20260831200404 54 302 0.0 0.0 0.00 0.17 0.06 92 1013.2
20260831195905 54 302 0.0 0.0 0.00 0.17 0.06 92 1013.3
20260831195404 54 302 0.0 0.0 0.00 0.17 0.06 92 1013.3
20260831194904 54 302 0.0 2.0 0.00 0.17 0.06 91 1013.2
20260831194405 54 302 0.0 0.0 0.00 0.17 0.06 91 1013.3
20260831193905 54 302 0.0 0.0 0.00 0.17 0.06 91 1013.3
20260831193404 55 302 0.0 1.0 0.00 0.17 0.06 91 1013.3
20260831192404 55 302 1.0 3.0 0.00 0.17 0.06 91 1013.2
20260831191904 55 303 0.0 2.0 0.00 0.17 0.06 91 1013.3
20260831191405 55 302 1.0 3.0 0.00 0.17 0.06 91 1013.2
20260831190904 55 303 1.0 3.0 0.00 0.17 0.06 90 1013.0
20260831190404 55 305 0.0 1.0 0.00 0.17 0.06 90 1012.7
20260831185904 55 305 0.0 0.0 0.00 0.17 0.06 90 1012.6
20260831185404 55 305 0.0 3.0 0.00 0.17 0.06 90 1012.5
20260831184904 55 305 0.0 3.0 0.00 0.18 0.06 91 1012.4
20260831184404 55 305 1.0 2.0 0.00 0.20 0.06 91 1012.5
20260831183905 55 305 0.0 0.0 0.00 0.22 0.06 91 1012.4
20260831183404 55 305 0.0 0.0 0.00 0.24 0.06 91 1012.4
20260831182904 55 305 0.0 1.0 0.00 0.27 0.06 91 1012.4
20260831182404 55 305 0.0 0.0 0.00 0.29 0.06 90 1012.4
20260831181904 55 305 0.0 0.0 0.00 0.30 0.06 89 1012.4
20260831181405 55 305 0.0 0.0 0.00 0.33 0.06 88 1012.4
20260831180905 56 305 0.0 0.0 0.00 0.36 0.06 86 1012.3
20260831180404 56 305 0.0 0.0 0.00 0.36 0.06 86 1012.4
20260831175904 56 305 0.0 0.0 0.00 0.36 0.06 85 1012.3
20260831175404 56 305 0.0 0.0 0.00 0.36 0.06 84 1012.4
20260831174904 57 305 0.0 3.0 0.00 0.36 0.06 80 1012.3
20260831174404 57 305 0.0 2.0 0.00 0.36 0.06 79 1012.3
20260831173905 57 305 0.0 2.0 0.00 0.36 0.06 78 1012.2
20260831173404 57 305 1.0 5.0 0.00 0.36 0.06 77 1012.2
20260831172904 57 305 2.0 5.0 0.00 0.36 0.06 78 1012.2
20260831171904 57 305 1.0 3.0 0.00 0.36 0.06 78 1012.1
20260831171404 58 305 0.0 3.0 0.00 0.36 0.06 76 1012.1
20260831170904 58 305 1.0 6.0 0.00 0.36 0.06 76 1012.0
20260831170404 58 305 1.0 5.0 0.00 0.36 0.06 78 1012.1
20260831165904 58 305 2.0 6.0 0.00 0.36 0.06 78 1012.0
20260831164905 58 306 0.0 3.0 0.00 0.36 0.06 76 1011.9
20260831163905 58 283 2.0 9.0 0.00 0.38 0.06 75 1011.8
20260831163404 58 294 1.0 3.0 0.00 0.42 0.06 75 1011.7
20260831162904 58 293 2.0 5.0 0.00 0.46 0.06 75 1011.6
20260831162405 58 292 2.0 6.0 0.00 0.51 0.06 76 1011.7
20260831161904 58 291 1.0 7.0 0.00 0.54 0.06 78 1011.7
20260831161405 58 257 2.0 5.0 0.00 0.57 0.06 79 1011.7
20260831160405 58 258 1.0 5.0 0.00 0.57 0.06 79 1011.5
20260831155904 58 259 3.0 7.0 0.00 0.57 0.06 79 1011.4
20260831155404 58 255 2.0 6.0 0.00 0.57 0.06 80 1011.4
20260831154904 58 270 2.0 10.0 0.00 0.57 0.06 79 1011.4
20260831153905 59 266 2.0 8.0 0.00 0.57 0.06 79 1011.1
20260831152404 61 264 3.0 5.0 0.00 0.57 0.06 77 1010.9
20260831151904 60 265 2.0 8.0 0.00 0.57 0.06 78 1010.8
20260831151404 60 255 5.0 12.0 0.00 0.57 0.06 76 1010.7
20260831150904 60 254 2.0 7.0 0.00 0.57 0.06 76 1010.7
20260831150405 61 276 2.0 7.0 0.00 0.57 0.06 74 1010.6
20260831145905 61 268 2.0 10.0 0.00 0.57 0.06 75 1010.5
20260831145404 61 237 1.0 7.0 0.00 0.57 0.06 77 1010.4
20260831144905 62 215 2.0 10.0 0.00 0.57 0.06 75 1010.4
20260831143905 62 258 2.0 10.0 0.00 0.57 0.06 75 1010.2
20260831143405 61 221 2.0 6.0 0.00 0.57 0.06 75 1010.2
20260831142905 60 227 5.0 12.0 0.00 0.57 0.06 76 1010.0
20260831142406 59 259 2.0 9.0 0.00 0.57 0.06 80 1010.1
20260831141907 59 263 1.0 3.0 0.00 0.57 0.06 81 1010.0
20260831141405 59 263 2.0 7.0 0.00 0.57 0.06 80 1010.0
20260831140905 59 291 2.0 6.0 0.00 0.57 0.06 77 1010.0
20260831140406 59 275 1.0 7.0 0.00 0.57 0.06 83 1010.1
20260831135906 59 247 2.0 8.0 0.00 0.57 0.06 83 1010.0
20260831135405 59 265 3.0 9.0 0.00 0.57 0.06 83 1009.7
20260831134906 58 270 2.0 7.0 0.00 0.57 0.06 86 1009.6
20260831134406 58 263 3.0 10.0 0.00 0.57 0.06 84 1009.6
20260831133405 58 266 3.0 7.0 0.00 0.57 0.06 86 1009.6
20260831132905 58 184 4.0 8.0 0.00 0.57 0.06 85 1009.5
20260831131905 58 237 3.0 12.0 0.00 0.57 0.06 86 1009.4
20260831130406 59 314 3.0 9.0 0.00 0.57 0.06 86 1009.2
20260831125906 59 275 3.0 12.0 0.00 0.57 0.06 87 1009.1
20260831125405 59 265 2.0 8.0 0.00 0.57 0.06 87 1009.0
20260831124906 59 218 4.0 8.0 0.00 0.57 0.06 87 1009.0
20260831124406 59 216 1.0 7.0 0.00 0.57 0.06 89 1008.8
20260831123905 59 215 3.0 8.0 0.00 0.57 0.06 89 1008.7
20260831123405 59 247 3.0 9.0 0.00 0.57 0.06 87 1008.6
20260831122406 59 234 3.0 9.0 0.00 0.57 0.06 89 1008.6
20260831121905 59 243 2.0 12.0 0.00 0.57 0.06 91 1008.6
20260831121405 59 214 5.0 9.0 0.00 0.57 0.06 90 1008.6
20260831120905 59 205 6.0 12.0 0.00 0.57 0.06 90 1008.4
20260831115906 59 212 5.0 10.0 0.00 0.57 0.06 90 1008.4
20260831115405 59 208 5.0 10.0 0.00 0.57 0.06 90 1008.4
20260831114906 59 257 3.0 8.0 0.00 0.57 0.06 90 1008.4
20260831114405 59 261 2.0 6.0 0.00 0.57 0.06 89 1008.4
20260831113905 59 263 2.0 7.0 0.00 0.57 0.06 90 1008.3
20260831113406 60 264 1.0 3.0 0.00 0.57 0.06 90 1008.3
20260831112906 60 265 1.0 8.0 0.00 0.57 0.06 89 1008.2
20260831112406 60 281 3.0 7.0 0.00 0.57 0.06 88 1008.0
20260831111905 60 293 3.0 7.0 0.00 0.57 0.06 87 1008.0
20260831111405 61 276 2.0 8.0 0.00 0.57 0.06 89 1008.0
20260831110905 61 232 2.0 6.0 0.00 0.57 0.06 91 1007.8
20260831110405 61 212 2.0 7.0 0.00 0.57 0.06 94 1007.8
20260831105905 60 212 3.0 5.0 0.00 0.57 0.06 95 1007.7
20260831105404 59 212 0.0 3.0 0.00 0.57 0.06 95 1007.5
20260831104905 59 212 1.0 3.0 0.00 0.57 0.06 94 1007.5
20260831104405 59 212 2.0 9.0 0.00 0.57 0.06 93 1007.5
20260831103904 59 210 4.0 9.0 0.00 0.57 0.06 93 1007.4
20260831102905 59 209 4.0 8.0 0.00 0.57 0.06 94 1007.2
20260831102404 59 207 4.0 9.0 0.00 0.57 0.06 94 1007.2
20260831101904 59 206 3.0 7.0 0.00 0.57 0.06 94 1007.1
20260831101404 59 205 2.0 6.0 0.00 0.57 0.06 94 1007.0
20260831100905 60 205 0.0 3.0 0.00 0.57 0.06 95 1007.1
20260831100404 59 205 3.0 7.0 0.00 0.57 0.06 94 1007.0
20260831095904 60 207 3.0 7.0 0.01 0.57 0.06 95 1006.9
20260831095405 59 207 3.0 7.0 0.01 0.57 0.06 95 1006.8
20260831094905 59 209 6.0 12.0 0.02 0.57 0.06 95 1006.7
20260831094405 59 215 4.0 8.0 0.03 0.57 0.06 96 1006.7
20260831093905 60 215 1.0 8.0 0.03 0.57 0.06 97 1006.6
20260831093405 59 215 5.0 9.0 0.03 0.57 0.06 97 1006.7
20260831092405 58 213 3.0 6.0 0.05 0.57 0.06 97 1006.6
20260831091905 58 213 4.0 7.0 0.06 0.57 0.06 97 1006.5
20260831091405 57 213 3.0 7.0 0.06 0.57 0.06 97 1006.5
20260831090905 57 213 5.0 7.0 0.06 0.57 0.06 97 1006.5
20260831090406 57 214 6.0 9.0 0.06 0.57 0.06 97 1006.4
20260831085905 57 230 5.0 8.0 0.05 0.57 0.05 97 1006.4
20260831085405 57 234 5.0 7.0 0.05 0.57 0.05 97 1006.4
20260831084905 57 234 4.0 6.0 0.04 0.56 0.04 97 1006.3
20260831084405 57 235 2.0 5.0 0.02 0.54 0.02 97 1006.3
20260831083405 57 235 1.0 3.0 0.02 0.54 0.02 97 1006.0
20260831082405 58 235 0.0 5.0 0.01 0.53 0.01 97 1005.9
20260831081404 57 236 0.0 3.0 0.00 0.52 0.00 97 1005.7
20260831080905 57 236 0.0 0.0 0.00 0.52 0.00 97 1005.7
20260831080403 57 236 0.0 0.0 0.00 0.52 0.00 97 1005.6
20260831075903 57 236 0.0 0.0 0.00 0.52 0.00 97 1005.6
20260831075403 57 236 0.0 0.0 0.00 0.52 0.00 97 1005.6
20260831074903 57 236 0.0 0.0 0.00 0.52 0.00 97 1005.5
20260831073904 57 236 0.0 0.0 0.00 0.52 0.00 97 1005.4
20260831073402 56 236 0.0 0.0 0.00 0.52 0.00 97 1005.3
20260831072903 56 236 0.0 0.0 0.00 0.52 0.00 97 1005.3
20260831072403 56 236 0.0 0.0 0.00 0.53 0.00 97 1005.2
20260831071903 56 236 0.0 0.0 0.00 0.53 0.00 97 1005.3
20260831071403 56 236 0.0 0.0 0.00 0.53 0.00 97 1005.2
20260831070903 56 235 0.0 0.0 0.00 0.53 0.00 97 1005.1
20260831070403 56 235 0.0 0.0 0.00 0.53 0.00 97 1005.1
20260831065903 56 236 0.0 0.0 0.00 0.53 0.00 97 1005.0
20260831064903 55 236 0.0 0.0 0.00 0.53 0.00 97 1004.9
20260831064403 55 236 0.0 0.0 0.00 0.53 0.00 97 1004.9
20260831063902 55 235 0.0 0.0 0.00 0.53 0.00 97 1004.8
20260831063404 55 236 0.0 0.0 0.00 0.53 0.00 97 1004.7
20260831062403 55 236 0.0 0.0 0.00 0.53 0.00 97 1004.6
20260831061903 55 236 0.0 0.0 0.00 0.53 0.00 97 1004.7
20260831061403 55 236 0.0 0.0 0.00 0.53 0.00 97 1004.5
20260831055903 54 236 0.0 0.0 0.00 0.53 0.00 97 1004.7
20260831055403 54 236 0.0 0.0 0.00 0.53 0.00 97 1004.6
20260831054903 54 236 0.0 0.0 0.00 0.53 0.00 97 1004.6
20260831053903 54 236 0.0 0.0 0.00 0.53 0.00 97 1004.5
20260831053403 54 236 0.0 0.0 0.00 0.53 0.00 97 1004.4
20260831052903 54 236 0.0 0.0 0.00 0.53 0.00 97 1004.2
20260831052402 54 236 0.0 0.0 0.00 0.53 0.00 97 1004.1
20260831051403 54 236 0.0 0.0 0.00 0.53 0.00 97 1004.1
20260831050403 54 236 0.0 0.0 0.00 0.53 0.00 97 1003.8
20260831044904 54 236 0.0 0.0 0.00 0.53 0.00 97 1003.6
20260831043904 54 236 0.0 0.0 0.00 0.53 0.00 97 1003.6
20260831043403 54 236 0.0 0.0 0.00 0.53 0.00 97 1003.6
20260831041903 54 236 0.0 0.0 0.00 0.53 0.00 97 1003.5
20260831041403 54 236 0.0 0.0 0.00 0.53 0.00 97 1003.5
20260831040903 54 236 0.0 0.0 0.00 0.53 0.00 97 1003.5